STARLINK-4718 (53773 NORAD) Tracking and Keplerian Element Data

This shows tracking and keplerian element data for the satellite.

Feedback or suggestion? Click here.




ElementValue
Catalog53773
NameSTARLINK-4718
Epoch Orbit1092
Epoch Day325.33334491
Epoch Year2022
RAAN290.5945
Inclination53.2151
Eccentricity0.0001454
Argument of Perigee73.0302
Mean Anonmoly156.0017
Mean Motion15.08823808
Decay Rate0.00033568
L11 53773U 22111A 22325.33334491 .00033568 00000+0 21181-2 0 9995
L22 53773 53.2151 290.5945 0001454 73.0302 156.0017 15.08823808 10922



Live tracking and technical data element details for STARLINK-4718 (NORAD 53773). STARLINK-4718 can be tracked NOW for your location showing map with azimuth and elevation plus other details from your city location.







IsCatalogInMostPopularTable: catalog: 53773, numindb: -1

Insert: records affected: 1


GetName: 53773 STARLINK-4718

Hit Count: inserted at: Thu, 08 Dec 2022 09:10:30 GMT